COSMOS 249 DEB, 3506

Orbit data source: Space-Track

COSMOS 249 DEB, 3506 is space debris in LEO originally from a launch on Sun, 20 Oct 1968 UTC launched from the Tyuratam Missile And Space Complex (TTMTR). Debris objects in space refer to the collection of defunct objects orbiting the Earth. Examples of debris include non-operational satellites, rocket bodies, and fragments generated from explosions, collisions, or faulty payload assembly.

Loading next visibility...
Identifier
3506, 1968-091C
Orbit
LEO
Country
Flag of CISCIS
Related business
Manufacturer
Unknown
Mission
Spacecraft
Bus & Motor
Unknown
Mass
Unknown
Launch date (UTC)
1968-10-20 (57 years ago)
Launch vehicle
Unknown
Launch site
Tyuratam Missile And Space Complex (TTMTR)
Object type
Payload
Rocket body
Debris
Shape & HBR
Unknown
Radar Cross Section
0.400 m², Medium (>0.1 m² and < 1m²)

Expand to show TLE details & history
Last TLE update: 1 day ago

TLE from 1 day ago
0 COSMOS 249 DEB
1 03506U 68091C   25261.01931927 -.00000040  00000-0  28896-4 0  9998
2 03506  62.3649 209.2185 0952255 209.0342 145.4354 12.90951174671347
Epoch: 2025-09-18T00:27Z
TLE epoch observation values (Epoch: 2025-09-18T00:27:49.184Z)
Latitude
0.00004°
Longitude
-154.92334°
Altitude
1,921.314 km
Speed
6.645 km/s
True Right ascension
13h 56m 52s
True Declination
0° 00' 00"
Sunlit
Object was in daylight at epoch
Visualization orbit readout
Latitude
Unknown
Longitude
Unknown
Altitude
Unknown
Speed
Unknown
Apparent Right ascension
Unknown
Apparent Declination
Unknown
Sunlit
N/A
Visualization observer readout
Local Sidereal Time
19:31:30
Azimuth
Unknown
Elevation
Unknown
Doppler factor
Unknown
Orbital elements
Apogee altitude
2,027.567 km
Perigee altitude
565.882 km
Semi-major axis
7,674.862 km
Eccentricity
0.09523
Inclination
62.3649°
RAAN
209.2185°
Arg. of periapsis
209.0342°
True anomaly
151.06289°
Mean anomaly
145.4354°
Eccentric anomaly
148.3022°
Mean motion
3.22803 °/min
Orbital period
111.52 mins
BSTAR
0.000028896
Loading maneuver chart data...
Computing Atmospheric mass density...

Documentation

Showing up to 5 results
|